{"data":{"norad_id":60336,"intl_designator":"2024-136H","name":"STARLINK-32079","alt_names":[],"object_type":"PAYLOAD","status":"ACTIVE","operator":null,"country":"US","launch_date":"2024-08-02","launch_site_code":"AFETR","launch_vehicle":null,"mission":null,"orbit_class":"UNKNOWN","rcs_meters":null,"size_class":null,"mass_kg":null,"dimensions":null,"purposes":["comms"],"wikipedia_slug":null,"has_3d_model":false,"image_url":null,"decayed_at":null,"tle_current":{"epoch":"2026-05-25T02:40:01.574976Z","epoch_age_seconds":62626,"freshness":"FRESH","line1":"1 60336U 24136H   26145.11112934  .00000423  00000+0  26393-4 0  9999","line2":"2 60336  53.1608  80.7945 0001319  86.6915 273.4237 15.30197917101367","mean_motion":15.30197917,"eccentricity":0.0001319,"inclination_deg":53.1608,"raan_deg":80.7945,"arg_perigee_deg":86.6915,"mean_anomaly_deg":273.4237,"bstar":2.6393e-5,"rev_number":10136,"period_min":94.105473808458,"perigee_km":474.31733093061,"apogee_km":476.12524684722,"semimajor_km":6853.3582888889,"source":"CELESTRAK","updated_at":"2026-05-25T13:38:19.234136Z"}}}